Date String (YYYY-MM-DD hh:mm:ss) UTC,Instrument flags,absolute air pressure of the measurement (hPa),sample flow rate (lpm),inlet stack bypass flow (lpm),air temperature of the measurement (°C),ambient temperature measured by the external sensor (°C),aerosol sample conditioner tube jacket temperature (°C),OPC LED temperature (°C),internal box temperature (°C),relative humidity of the measurement (%),span deviation,mass concentration of particles derived from Lorenz-Mie calculation of OPC scattering (μg/m³),mass concentration of particles derived from Lorenz-Mie calculation of OPC scattering (μg/m³),mass concentration of particles derived from Lorenz-Mie calculation of OPC scattering (μg/m³)
DateTimeUTC,F1_M11,P_M11,Q1_M11,Q2_M11,T1_M11,T2_M11,T3_M11,T4_M11,T5_M11,U1_M11,ZSPAN_M11,X2_M11,X0_M11,X1_M11
2023-10-20 08:00:00,SystemResetWarning,0832.9,5.00,000.00,029.2,027.8,000.0,037.6,030.8,7.5,0000.0,0001.08,0009.99,0000.59
2023-10-20 08:01:00,SystemResetWarning,0832.7,5.00,000.00,029.2,027.8,000.0,037.6,030.8,7.5,0000.0,0001.06,0008.39,0000.58
2023-10-20 08:02:00,SystemResetWarning,0832.8,4.99,000.00,029.2,027.8,000.0,037.6,030.8,7.6,0000.0,0001.04,0007.64,0000.57
2023-10-20 08:03:00,SystemResetWarning,0832.8,5.01,000.00,029.2,027.8,000.0,037.6,030.8,7.5,0000.0,0000.99,0007.60,0000.55
2023-10-20 08:04:00,SystemResetWarning,0832.8,5.02,000.00,029.2,027.8,000.0,037.6,030.8,7.5,0000.0,0000.88,0006.71,0000.53
2023-10-20 08:05:00,SystemResetWarning,0832.7,4.98,000.00,029.2,027.8,000.0,037.6,030.8,7.5,0000.0,0000.77,0006.05,0000.50
2023-10-20 08:06:00,SystemResetWarning,0832.7,5.00,000.00,029.2,027.8,000.0,037.6,030.8,7.5,0000.0,0000.74,0005.49,0000.49
2023-10-20 08:07:00,SystemResetWarning,0832.7,5.01,000.00,029.2,027.8,000.0,037.6,030.8,7.5,0000.0,0000.67,0005.03,0000.47
2023-10-20 08:08:00,SystemResetWarning,0832.7,5.01,000.00,029.2,027.9,000.0,037.6,030.8,7.5,0000.0,0000.62,0003.45,0000.45
2023-10-20 08:09:00,SystemResetWarning,0832.7,5.00,000.00,029.2,027.9,000.0,037.6,030.8,7.5,0000.0,0000.62,0003.53,0000.44
2023-10-20 08:10:00,SystemResetWarning,0832.7,4.98,000.00,029.2,027.9,000.0,037.6,030.9,7.5,0000.0,0000.59,0002.99,0000.44
2023-10-20 08:11:00,SystemResetWarning,0832.7,5.01,000.00,029.2,027.9,000.0,037.6,030.9,7.5,0000.0,0000.65,0003.06,0000.44
2023-10-20 08:12:00,SystemResetWarning,0832.7,5.00,000.00,029.3,027.4,000.0,037.6,030.9,7.5,0000.0,0000.69,0003.04,0000.44
2023-10-20 08:13:00,SystemResetWarning,0832.7,4.98,000.00,029.2,025.4,000.0,037.6,030.7,7.5,0000.0,0000.73,0003.15,0000.45
2023-10-20 08:14:00,SystemResetWarning,0832.7,5.00,000.00,029.1,024.7,000.0,037.5,030.5,7.5,0000.0,0000.75,0003.11,0000.46
2023-10-20 08:15:00,SystemResetWarning,0832.7,5.01,000.00,029.0,024.8,000.0,037.4,030.2,7.5,0000.0,0000.78,0003.26,0000.47
2023-10-20 08:16:00,SystemResetWarning,0832.7,5.00,000.00,028.9,025.2,000.0,037.4,030.2,7.6,0000.0,0000.81,0003.55,0000.48
2023-10-20 08:17:00,SystemResetWarning,0832.7,5.00,000.00,028.8,025.5,000.0,037.4,030.2,7.6,0000.0,0000.87,0003.69,0000.50
2023-10-20 08:18:00,SystemResetWarning,0832.7,5.00,000.00,028.8,025.9,000.0,037.4,030.2,7.7,0000.0,0000.94,0004.28,0000.51
2023-10-20 08:19:00,SystemResetWarning,0832.7,5.00,000.00,028.7,026.2,000.0,037.4,030.3,7.8,0000.0,0001.02,0004.86,0000.54
2023-10-20 08:20:00,SystemResetWarning,0832.8,5.00,000.00,028.7,026.4,000.0,037.4,030.3,8.1,0000.0,0001.06,0003.39,0000.54
2023-10-20 08:21:00,SystemResetWarning,0832.7,5.00,000.00,028.7,026.6,000.0,037.4,030.3,8.1,0000.0,0001.07,0003.37,0000.55
2023-10-20 08:22:00,SystemResetWarning,0832.7,5.00,000.00,028.7,026.8,000.0,037.3,030.3,8.6,0000.0,0001.08,0003.40,0000.57
2023-10-20 08:23:00,SystemResetWarning,0832.9,5.00,000.00,028.7,026.9,000.0,037.3,030.3,8.6,0000.0,0001.08,0003.47,0000.58
2023-10-20 08:24:00,SystemResetWarning,0832.7,5.00,000.00,028.7,027.1,000.0,037.3,030.4,8.1,0000.0,0001.07,0003.47,0000.58
2023-10-20 08:25:00,SystemResetWarning,0832.7,5.00,000.00,028.8,027.1,000.0,037.3,030.4,8.0,0000.0,0001.05,0003.58,0000.58
2023-10-20 08:26:00,SystemResetWarning,0832.7,5.00,000.00,028.8,027.2,000.0,037.3,030.4,7.9,0000.0,0001.03,0003.42,0000.56
2023-10-20 08:27:00,SystemResetWarning,0832.7,5.00,000.00,028.8,027.3,000.0,037.3,030.4,7.7,0000.0,0001.02,0003.23,0000.57
2023-10-20 08:28:00,SystemResetWarning,0832.7,4.99,000.00,028.8,027.4,000.0,037.3,030.4,7.7,0000.0,0001.01,0003.27,0000.55
2023-10-20 08:29:00,SystemResetWarning,0832.7,4.98,000.00,028.8,027.4,000.0,037.3,030.5,7.9,0000.0,0000.95,0002.83,0000.54
2023-10-20 08:30:00,SystemResetWarning,0832.7,5.01,000.00,028.9,027.5,000.0,037.3,030.5,8.0,0000.0,0000.88,0002.09,0000.52
2023-10-20 08:31:00,SystemResetWarning,0832.7,5.01,000.00,028.9,027.5,000.0,037.3,030.5,8.1,0000.0,0000.86,0002.11,0000.51
2023-10-20 08:32:00,SystemResetWarning,0832.8,5.00,000.00,028.9,027.6,000.0,037.3,030.5,8.1,0000.0,0000.83,0002.05,0000.49
2023-10-20 08:33:00,SystemResetWarning,0832.7,4.99,000.00,028.9,027.6,000.0,037.3,030.6,8.1,0000.0,0000.78,0001.91,0000.47
2023-10-20 08:34:00,SystemResetWarning,0832.7,5.00,000.00,028.9,027.6,000.0,037.3,030.6,8.1,0000.0,0000.72,0001.78,0000.46
2023-10-20 08:35:00,SystemResetWarning,0832.7,5.01,000.00,028.9,027.6,000.0,037.3,030.6,8.2,0000.0,0000.69,0001.62,0000.45
2023-10-20 08:36:00,SystemResetWarning,0832.7,5.00,000.00,029.0,027.7,000.0,037.3,030.6,8.6,0000.0,0000.68,0001.44,0000.45
2023-10-20 08:37:00,SystemResetWarning,0832.7,4.99,000.00,029.0,027.7,000.0,037.4,030.7,8.7,0000.0,0000.67,0001.32,0000.45
2023-10-20 08:38:00,SystemResetWarning,0832.7,5.00,000.00,029.0,027.7,000.0,037.4,030.7,8.6,0000.0,0000.64,0001.23,0000.44
2023-10-20 08:39:00,SystemResetWarning,0832.7,5.01,000.00,029.0,027.7,000.0,037.4,030.7,8.9,0000.0,0000.60,0001.03,0000.44
2023-10-20 08:40:00,SystemResetWarning,0832.6,5.00,000.00,029.0,027.8,000.0,037.4,030.7,8.7,0000.0,0000.62,0001.32,0000.44
2023-10-20 08:41:00,SystemResetWarning,0832.7,4.99,000.00,029.0,027.8,000.0,037.4,030.7,8.6,0000.0,0000.64,0001.59,0000.45
2023-10-20 08:42:00,SystemResetWarning,0832.7,4.99,000.00,029.1,027.8,000.0,037.4,030.7,8.5,0000.0,0000.62,0001.51,0000.45
2023-10-20 08:43:00,SystemResetWarning,0832.7,5.00,000.00,029.1,027.8,000.0,037.4,030.7,8.8,0000.0,0000.63,0001.47,0000.46
2023-10-20 08:44:00,SystemResetWarning,0832.7,5.01,000.00,029.1,027.8,000.0,037.5,030.7,8.8,0000.0,0000.63,0001.50,0000.46
2023-10-20 08:45:00,SystemResetWarning,0832.6,5.01,000.00,029.1,027.8,000.0,037.5,030.7,8.6,0000.0,0000.63,0001.56,0000.46
2023-10-20 08:46:00,SystemResetWarning,0832.6,5.00,000.00,029.1,027.8,000.0,037.5,030.8,8.4,0000.0,0000.62,0001.54,0000.46
2023-10-20 08:47:00,SystemResetWarning,0832.6,4.99,000.00,029.1,027.8,000.0,037.5,030.7,8.3,0000.0,0000.62,0001.95,0000.46
2023-10-20 08:48:00,SystemResetWarning,0832.6,4.99,000.00,029.1,027.8,000.0,037.5,030.8,8.3,0000.0,0000.60,0002.74,0000.45
2023-10-20 08:49:00,SystemResetWarning,0832.7,5.00,000.00,029.1,027.8,000.0,037.5,030.8,8.3,0000.0,0000.61,0002.77,0000.45
2023-10-20 08:50:00,SystemResetWarning,0832.6,5.01,000.00,029.1,027.8,000.0,037.5,030.8,8.2,0000.0,0000.60,0002.75,0000.45
2023-10-20 08:51:00,SystemResetWarning,0832.6,5.00,000.00,029.2,027.8,000.0,037.5,030.8,8.2,0000.0,0000.57,0002.41,0000.44
2023-10-20 08:52:00,SystemResetWarning,0832.6,5.01,000.00,029.2,027.9,000.0,037.5,030.8,8.2,0000.0,0000.57,0002.20,0000.44
2023-10-20 08:53:00,SystemResetWarning,0832.7,5.01,000.00,029.2,027.9,000.0,037.6,030.8,8.2,0000.0,0000.55,0002.09,0000.43
2023-10-20 08:54:00,SystemResetWarning,0832.6,4.98,000.00,029.2,027.9,000.0,037.6,030.8,8.2,0000.0,0000.52,0002.06,0000.43
2023-10-20 08:55:00,SystemResetWarning,0832.6,5.00,000.00,029.2,027.9,000.0,037.6,030.8,8.2,0000.0,0000.50,0001.98,0000.43
2023-10-20 08:56:00,SystemResetWarning,0832.6,5.01,000.00,029.2,027.9,000.0,037.6,030.8,8.2,0000.0,0000.50,0001.92,0000.43
2023-10-20 08:57:00,SystemResetWarning,0832.5,5.00,000.00,029.2,027.9,000.0,037.6,030.8,8.1,0000.0,0000.52,0001.97,0000.43
2023-10-20 08:58:00,SystemResetWarning,0832.5,5.00,000.00,029.2,027.9,000.0,037.6,030.9,8.2,0000.0,0000.53,0001.91,0000.42
2023-10-20 08:59:00,SystemResetWarning,0832.5,5.01,000.00,029.2,027.9,000.0,037.6,030.9,8.2,0000.0,0000.56,0002.27,0000.44
